TimeEST,TemperatureF,Dew PointF,Humidity,Sea Level PressureIn,VisibilityMPH,Wind Direction,Wind SpeedMPH,Gust SpeedMPH,PrecipitationIn,Events,Conditions,WindDirDegrees,DateUTC
12:52 AM,37.4,30.2,75,30.11,10.0,ESE,9.2,-,N/A,,Overcast,110,2013-01-11 05:52:00
1:19 AM,37.4,30.2,75,30.10,4.0,ESE,8.1,-,0.01,Rain,Rain,110,2013-01-11 06:19:00
1:25 AM,37.4,30.2,75,30.10,2.5,ESE,5.8,-,0.05,Rain,Heavy Rain,110,2013-01-11 06:25:00
1:52 AM,36.0,33.1,89,30.09,2.0,East,9.2,-,0.22,Rain,Heavy Rain,100,2013-01-11 06:52:00
2:04 AM,35.6,33.8,93,30.06,4.0,East,9.2,-,0.03,Rain,Light Rain,90,2013-01-11 07:04:00
2:52 AM,37.0,34.0,89,30.07,8.0,ESE,3.5,-,0.03,,Overcast,110,2013-01-11 07:52:00
3:52 AM,37.0,34.0,89,30.02,7.0,NE,3.5,-,0.02,,Mostly Cloudy,50,2013-01-11 08:52:00
4:52 AM,37.0,34.0,89,29.97,7.0,East,4.6,-,N/A,,Overcast,90,2013-01-11 09:52:00
5:52 AM,37.9,36.0,93,29.93,6.0,East,4.6,-,0.03,Rain,Light Rain,80,2013-01-11 10:52:00
6:38 AM,37.4,37.4,100,29.92,2.0,Calm,Calm,-,0.02,Rain,Heavy Rain,0,2013-01-11 11:38:00
6:48 AM,39.2,37.4,93,29.93,1.5,Calm,Calm,-,0.06,Rain,Heavy Rain,0,2013-01-11 11:48:00
6:52 AM,39.0,37.0,93,29.95,1.5,Calm,Calm,-,0.08,Rain,Heavy Rain,0,2013-01-11 11:52:00
7:09 AM,44.6,42.8,93,29.93,2.5,SSW,9.2,-,N/A,Rain,Heavy Rain,200,2013-01-11 12:09:00
7:18 AM,44.6,42.8,93,29.93,1.2,South,10.4,-,0.16,Rain,Heavy Rain,190,2013-01-11 12:18:00
7:21 AM,44.6,42.8,93,29.93,1.5,SSW,8.1,-,0.20,Rain,Heavy Rain,200,2013-01-11 12:21:00
7:27 AM,44.6,44.6,100,29.92,2.0,South,8.1,-,0.23,Rain,Heavy Rain,190,2013-01-11 12:27:00
7:42 AM,44.6,44.6,100,29.91,3.0,South,6.9,-,0.30,Rain,Rain,180,2013-01-11 12:42:00
7:46 AM,46.4,44.6,93,29.91,5.0,South,9.2,-,0.30,Rain,Light Rain,180,2013-01-11 12:46:00
7:52 AM,46.0,44.1,93,29.92,6.0,South,8.1,-,0.30,Rain,Light Rain,170,2013-01-11 12:52:00
8:52 AM,46.0,45.0,96,29.86,4.0,SSE,9.2,19.6,0.02,Rain,Light Rain,150,2013-01-11 13:52:00
9:06 AM,46.4,44.6,93,29.80,5.0,SSE,11.5,18.4,0.01,Rain,Light Rain,150,2013-01-11 14:06:00
9:13 AM,48.2,46.4,93,29.80,7.0,SSE,11.5,20.7,0.01,,Mostly Cloudy,160,2013-01-11 14:13:00
9:52 AM,50.0,46.9,89,29.82,10.0,South,11.5,19.6,0.01,,Scattered Clouds,190,2013-01-11 14:52:00
10:04 AM,50.0,46.4,87,29.81,10.0,South,10.4,18.4,N/A,,Mostly Cloudy,180,2013-01-11 15:04:00
10:52 AM,51.1,48.0,89,29.84,10.0,SSW,15.0,24.2,N/A,,Overcast,200,2013-01-11 15:52:00
11:00 AM,51.8,48.2,88,29.83,10.0,SSW,11.5,20.7,N/A,,Overcast,200,2013-01-11 16:00:00
11:52 AM,53.1,48.9,86,29.83,10.0,SSW,12.7,19.6,N/A,,Overcast,210,2013-01-11 16:52:00
12:02 PM,53.6,50.0,88,29.83,2.5,SSW,11.5,19.6,0.01,Rain,Rain,210,2013-01-11 17:02:00
12:18 PM,53.6,50.0,88,29.81,10.0,SW,15.0,-,0.05,Rain,Light Rain,220,2013-01-11 17:18:00
12:52 PM,54.0,51.1,90,29.81,10.0,SW,13.8,21.9,0.05,,Mostly Cloudy,220,2013-01-11 17:52:00
1:30 PM,55.4,51.8,88,29.81,10.0,SW,13.8,23.0,N/A,,Overcast,230,2013-01-11 18:30:00
1:52 PM,55.9,50.0,80,29.82,10.0,WSW,17.3,24.2,N/A,,Mostly Cloudy,240,2013-01-11 18:52:00
2:22 PM,57.2,50.0,77,29.81,10.0,SW,16.1,21.9,N/A,,Scattered Clouds,230,2013-01-11 19:22:00
2:52 PM,57.9,48.9,72,29.83,10.0,WSW,16.1,-,N/A,,Scattered Clouds,240,2013-01-11 19:52:00
3:52 PM,55.9,48.0,75,29.85,10.0,WSW,11.5,-,N/A,,Overcast,240,2013-01-11 20:52:00
4:52 PM,55.9,46.9,72,29.87,10.0,SW,10.4,-,N/A,,Mostly Cloudy,230,2013-01-11 21:52:00
5:52 PM,54.0,46.9,77,29.88,10.0,SSW,5.8,-,N/A,,Mostly Cloudy,210,2013-01-11 22:52:00
6:52 PM,52.0,45.0,77,29.91,10.0,SSW,8.1,-,N/A,,Clear,210,2013-01-11 23:52:00
7:52 PM,50.0,44.1,80,29.89,10.0,South,5.8,-,N/A,,Clear,180,2013-01-12 00:52:00
8:52 PM,48.9,45.0,86,29.89,10.0,South,5.8,-,N/A,,Clear,170,2013-01-12 01:52:00
9:52 PM,48.9,45.0,86,29.88,10.0,South,5.8,-,N/A,,Clear,190,2013-01-12 02:52:00
10:52 PM,48.0,44.1,86,29.88,10.0,South,6.9,-,N/A,,Clear,180,2013-01-12 03:52:00
11:52 PM,48.0,44.1,86,29.88,10.0,SSW,6.9,-,N/A,,Clear,200,2013-01-12 04:52:00